Flag for U.S.A. Weather past 2 weeks in Pasadena, Texas, U.S.A.

Now
77 °F

Scattered showers. Broken clouds.


Feels Like: 79 °F
Forecast: 75 / 86 °F
Wind: 14 mph from Southeast

Location: Houston / Ellington

Current Time: Aug 31, 2015 at 7:05:39 PM

Latest Report: Aug 31, 2015 at 5:50 PM


Visibility: 10 mi

Pressure: 30.02 "Hg

Humidity: 79%

Dew point: 70 °F

Location of PasadenaLocation

Historic Weather in Pasadena — Graph

°F

Pasadena temperature yesterday

Maximum temperature yesterday: 90 °F (at 2:50 PM)
Minimum temperature yesterday: 72 °F (at 5:50 AM)
Average temperature yesterday: 81 °F

Past Weeks' High & Low Weather Summary

 TemperatureHumidityPressure
High95 °F (Aug 17, 12:50 PM)100% (Aug 20, 8:50 AM)30.15 "Hg (Aug 20, 8:50 AM)
Low72 °F (Aug 21, 9:50 AM)36% (Aug 27, 3:50 PM)29.80 "Hg (Aug 19, 6:50 PM)
Average82 °F74%29.99 "Hg
* Reported Aug 16 5:50 PM — Aug 31 5:50 PM, Pasadena, Weather by CustomWeather, © 2015

Note: Actual official high and low records may vary slightly from our data, if they occured in-between our weather recording intervals... More about our weather records

Advertising

Pasadena weather history for previous 24 hours

 ConditionsComfort  
Time TempWeatherWind HumidityBarometerVisibility
5:50 PM
Mon, Aug 31
77 °FScattered showers. Broken clouds.14 mph79%30.02 "Hg10 mi
4:50 PM82 °FScattered showers. Broken clouds.2 mph79%30.02 "Hg10 mi
3:50 PM81 °FMore clouds than sun.7 mph84%30.01 "Hg10 mi
2:50 PM81 °FMore clouds than sun.5 mph84%30.04 "Hg10 mi
1:50 PM82 °FMostly cloudy.No wind79%30.05 "Hg10 mi
12:50 PM84 °FOvercast.3 mph70%30.07 "Hg10 mi
11:50 AM86 °FBroken clouds.5 mph66%30.00 "Hg10 mi
10:50 AM88 °FBroken clouds.7 mph62%30.06 "Hg10 mi
9:50 AM86 °FBroken clouds.No wind66%30.04 "Hg10 mi
8:50 AM84 °FBroken clouds.3 mph70%30.04 "Hg10 mi
7:50 AM77 °FPartly cloudy.No wind83%30.02 "Hg10 mi
6:50 AM75 °FPartly cloudy.No wind78%30.00 "Hg10 mi
5:50 AM73 °FPassing clouds.No wind83%30.00 "Hg10 mi
4:50 AM75 °FPassing clouds.No wind83%29.99 "Hg10 mi
3:50 AM75 °FPassing clouds.No wind83%29.99 "Hg10 mi
2:50 AM77 °FPassing clouds.No wind79%29.98 "Hg10 mi
1:50 AM77 °FPassing clouds.No wind79%30.00 "Hg10 mi
12:50 AM79 °FPassing clouds.No wind74%30.00 "Hg10 mi
11:50 PM
Sun, Aug 30
79 °FPassing clouds.No wind74%30.00 "Hg10 mi
10:50 PM81 °FPassing clouds.No wind70%30.00 "Hg10 mi
9:50 PM81 °FPassing clouds.3 mph66%30.00 "Hg10 mi
8:50 PM82 °FPassing clouds.3 mph58%29.99 "Hg10 mi
7:50 PM84 °FBroken clouds.7 mph58%29.97 "Hg10 mi
Weather by CustomWeather, © 2015

See weather overviewHow to use our weather pages